Torna al catalogo

CZ-6A DEB

AttivoPO
NORAD 54334·DEBRIS·🇨🇳 China

Lanciato Nov 11, 2022 da Taiyuan Satellite Launch Center

Loading…

Prossimi Passaggi (prossime 24 ore)

TLE

AggiornatoSource: Space-Track

Epoca: Sep 13, 2026, 18:36 UTC

1 54334U 22151CD  26256.77569227  .00776661  00000-0  79248-2 0  9991
2 54334  98.6079  10.6632 0022089 259.6714 100.2050 15.62382508205424

Traccia CZ-6A DEB in tempo reale con AllMySat

Download on the App Store